Overview Statistics Trail Chart Weather Telemetry Raw packets
 

This is the latest recevied weather packets stored in our database for station/object N6GPM. If no packets are shown the sender has not sent any weather packets the latest 10 day(s).

<< 19 20 21 22 23 24 25 >>
Time Temp. Humidity Pressure Rain* Wind** Luminosity Snow
1788545678 24.44° C 48% 1018.1 hPa 0 mm - 900 W/m² -
1788545372 24.44° C 49% 1018.2 hPa 0 mm - 892 W/m² -
1788545067 23.89° C 49% 1018.1 hPa 0 mm - 881 W/m² -
1788544767 23.33° C 51% 1018.1 hPa 0 mm - 871 W/m² -
1788544466 23.89° C 52% 1018.4 hPa 0 mm - 860 W/m² -
1788544166 22.78° C 52% 1018.4 hPa 0 mm - 846 W/m² -
1788543861 23.33° C 53% 1018.3 hPa 0 mm - 836 W/m² -
1788543557 23.89° C 51% 1018.3 hPa 0 mm - 821 W/m² -
1788543247 23.89° C 51% 1018.2 hPa 0 mm - 808 W/m² -
1788542942 22.78° C 54% 1018.3 hPa 0 mm - 793 W/m² -
1788542641 22.78° C 54% 1018.4 hPa 0 mm - 782 W/m² -
1788542336 22.22° C 57% 1018.4 hPa 0 mm - 767 W/m² -
1788542031 22.78° C 55% 1018.1 hPa 0 mm - 752 W/m² -
1788541728 22.22° C 58% 1018.1 hPa 0 mm - 735 W/m² -
1788541423 22.22° C 57% 1018.2 hPa 0 mm - 720 W/m² -
1788541118 21.11° C 61% 1018 hPa 0 mm - 696 W/m² -
1788540811 21.11° C 62% 1018.1 hPa 0 mm - 682 W/m² -
1788540506 20.56° C 64% 1017.9 hPa 0 mm - 666 W/m² -
1788540200 21.11° C 63% 1017.9 hPa 0 mm - 646 W/m² -
1788539897 20.56° C 66% 1017.8 hPa 0 mm - 623 W/m² -
1788539592 20.56° C 66% 1017.7 hPa 0 mm - 603 W/m² -
1788539291 20° C 68% 1017.7 hPa 0 mm - 587 W/m² -
1788538987 20° C 69% 1017.9 hPa 0 mm - 567 W/m² -
1788538681 19.44° C 70% 1017.7 hPa 0 mm - 547 W/m² -
1788538376 19.44° C 70% 1017.6 hPa 0 mm - 527 W/m² -

* Rain latest hour (hover to see other rain measurements)
** Current wind speed in m/s (hover to see current wind gust speed)